Theta_e
308 308 309 309 310 311 312 313 314 316 315 316 315 314 315 314 315 318 318 319 321 319 318 320 320 321 322 321 323 323 324 326 327 326 327 327 326 327 327 329 329 329 335 344 350 350 347 347 347 346 345 343 343 344 344 343 343 343 343 340 333 329 332 333 334 338 339 338 337 337 337 337 336 336 336 336 336 337 336 335 335 334 334 333 333 333
309 308 309 309 310 311 312 313 314 315 316 315 314 314 314 314 315 318 319 319 320 319 318 321 320 320 321 321 322 323 323 327 328 328 329 328 327 328 327 329 329 328 338 348 350 348 347 347 347 346 345 343 342 344 344 344 343 343 343 340 332 329 332 334 336 339 338 337 337 337 338 337 335 335 336 336 336 336 336 335 335 335 334 333 333 333
309 308 309 310 310 311 311 312 313 314 315 314 315 314 312 314 316 317 318 319 320 318 318 320 319 320 321 321 322 322 323 326 327 328 329 328 327 327 327 328 327 328 342 348 346 345 347 348 346 346 345 342 343 345 344 344 344 343 343 340 334 331 332 335 337 339 338 338 338 338 337 336 335 335 336 337 336 335 334 334 334 334 334 334 334 334
308 309 309 310 310 311 311 312 312 312 313 314 314 313 313 315 314 313 317 319 320 319 319 319 319 320 321 321 321 321 322 323 326 329 329 327 327 327 326 327 326 330 340 344 343 345 348 348 346 346 344 342 343 345 344 344 344 343 343 340 337 334 334 336 338 339 339 339 338 338 337 336 336 336 336 336 335 333 333 334 334 334 334 334 334 334
307 309 311 311 310 311 311 311 312 311 312 314 314 313 314 315 315 315 317 318 318 319 320 319 317 318 320 321 321 321 322 322 324 328 330 328 327 326 326 328 327 330 339 343 345 347 348 348 346 346 344 343 344 345 344 344 344 343 342 339 338 337 335 337 338 340 340 338 338 337 337 337 337 337 336 334 332 332 333 334 334 334 334 333 334 333
307 309 311 311 310 311 311 311 312 312 312 313 314 315 315 315 316 316 317 317 315 315 319 319 314 314 319 320 321 322 321 322 322 325 329 329 328 326 326 329 328 328 338 345 347 347 348 348 346 345 344 343 343 344 343 344 344 343 341 339 338 338 336 337 339 340 339 338 338 337 337 337 337 336 334 332 331 332 334 334 334 333 333 333 332 331
307 308 309 310 311 311 311 311 311 312 313 312 314 315 315 316 316 316 317 315 313 313 317 319 314 313 316 318 321 323 321 322 323 323 327 329 328 326 327 328 328 331 339 345 346 346 347 347 346 345 344 343 342 343 343 343 343 343 340 339 339 338 337 338 339 340 339 338 338 337 336 336 335 333 332 330 330 332 334 333 333 333 332 332 331 329
307 308 308 309 311 311 311 311 312 312 312 312 314 315 315 316 316 316 316 315 313 315 317 318 317 313 313 317 321 322 321 321 322 322 325 328 328 328 328 326 328 334 338 341 344 346 347 347 346 344 343 343 342 342 343 342 343 342 340 340 340 338 338 338 339 340 338 337 337 337 336 334 333 331 330 330 331 332 333 333 333 333 331 331 330 329
307 307 308 309 310 311 311 311 312 312 312 314 315 315 316 316 315 316 316 315 315 315 313 314 316 313 312 317 321 321 321 319 321 323 322 326 329 329 329 326 328 334 335 335 339 344 347 346 344 344 343 343 342 342 342 342 343 342 340 340 340 339 338 338 339 339 338 337 337 336 334 333 333 332 331 331 332 333 333 333 332 332 331 329 329 329
307 308 308 309 309 311 312 312 312 313 313 315 316 316 316 315 315 316 316 314 315 314 312 313 314 313 312 315 318 319 319 319 321 324 322 324 329 330 329 327 328 332 333 332 334 338 343 345 345 344 343 342 342 342 342 343 342 341 340 340 340 340 340 340 339 338 337 337 336 335 333 333 333 332 332 333 333 333 333 333 332 331 330 328 328 328
307 308 309 309 310 311 312 312 312 313 314 315 316 315 315 316 315 316 315 314 314 314 313 314 314 313 312 313 316 319 319 321 322 323 323 323 327 329 329 328 329 331 333 332 332 335 341 345 345 344 343 342 342 342 342 343 342 341 340 340 340 340 339 340 339 337 337 337 335 334 334 333 332 331 333 332 332 332 332 332 331 330 329 328 329 329
306 307 309 309 310 312 312 313 312 313 314 314 315 314 314 315 314 313 314 315 315 314 313 314 315 314 312 314 317 320 320 321 321 321 322 322 324 328 329 329 328 329 333 332 333 338 343 345 345 344 343 343 342 342 342 342 342 341 340 340 340 340 339 338 337 336 336 336 335 335 335 334 332 332 332 332 332 331 331 331 329 328 328 328 329 329
305 306 308 310 311 311 312 312 312 313 313 314 314 314 313 313 314 314 313 314 313 313 314 315 315 313 313 316 318 320 320 320 321 320 323 323 322 327 330 330 328 328 333 332 333 342 345 345 345 344 343 343 342 342 342 342 341 341 340 340 339 339 339 337 336 336 336 335 334 335 336 335 333 333 333 332 332 331 331 331 329 328 328 329 329 329
306 307 308 309 311 312 312 312 312 312 313 314 313 313 313 313 316 316 314 313 313 313 314 315 315 313 313 317 320 320 320 322 322 321 323 322 323 327 330 331 331 331 333 332 333 341 344 344 344 344 343 342 342 342 342 342 341 340 339 339 339 339 338 336 336 337 335 335 335 335 335 335 333 333 333 333 332 332 331 331 329 329 328 328 329 328
307 307 308 309 311 312 312 312 313 313 312 314 314 314 314 313 315 315 313 313 313 312 313 314 315 313 312 317 321 322 321 322 323 321 322 323 323 328 330 331 332 331 332 333 335 341 343 343 344 344 343 342 342 342 342 341 341 340 339 338 338 338 338 336 337 337 336 336 336 336 335 334 333 333 333 333 332 332 331 330 329 328 328 327 327 327
307 308 309 310 311 312 312 312 313 314 313 314 315 313 314 314 314 314 314 314 314 313 313 314 315 315 316 320 323 323 322 321 322 322 322 323 324 328 330 330 331 330 330 332 337 342 343 343 344 344 343 342 342 341 340 340 341 340 339 339 338 338 337 337 337 336 336 337 337 336 334 333 333 333 332 332 332 332 330 329 328 327 327 326 325 325
308 310 311 311 312 311 312 313 313 314 314 314 314 313 314 316 316 315 314 316 315 314 315 314 314 316 317 320 322 322 322 321 322 322 323 325 326 328 331 331 330 330 329 331 337 343 344 344 345 344 342 342 342 341 340 339 340 340 339 339 339 339 338 337 337 337 337 338 337 335 333 333 333 333 333 332 332 331 329 328 327 327 326 325 324 324
310 311 312 311 312 312 312 314 313 314 315 313 313 314 315 316 316 316 315 315 315 315 315 314 313 314 314 316 320 322 322 323 322 322 324 327 327 330 332 331 330 330 328 332 339 343 345 345 344 343 342 341 341 341 339 339 340 340 340 339 339 339 337 336 337 337 337 338 336 334 333 332 333 333 333 332 331 329 329 328 327 326 325 324 324 323
311 311 313 312 312 313 312 313 313 313 314 314 314 315 315 315 315 315 316 316 315 315 316 314 313 313 313 314 320 322 323 324 323 323 324 326 328 330 331 330 330 330 330 334 340 344 345 345 343 342 341 341 341 340 339 339 340 340 339 339 339 339 337 336 337 337 337 337 335 334 333 333 333 334 332 332 331 329 328 328 327 326 325 324 323 322
310 312 314 313 312 313 312 312 313 313 313 314 314 314 314 315 315 315 316 316 315 316 316 315 313 314 315 317 320 322 324 324 325 325 325 327 329 329 330 330 328 330 332 337 343 345 345 344 342 341 341 340 340 339 338 339 340 339 339 339 339 339 338 337 337 337 337 336 335 334 334 334 334 333 332 332 330 329 328 327 327 326 326 325 323 320
311 313 314 314 312 312 312 312 313 313 313 312 313 313 313 314 315 316 316 314 315 316 316 316 315 314 317 321 322 322 325 325 326 328 328 329 329 328 330 329 328 330 333 338 344 345 345 344 342 341 341 340 340 339 339 339 339 338 338 339 339 339 338 338 337 337 337 336 335 335 334 334 334 333 332 331 330 329 328 327 327 326 326 325 322 319
312 313 315 315 313 312 312 312 313 314 313 312 312 312 313 314 314 315 316 315 314 315 315 316 315 315 318 324 323 322 326 325 325 328 328 329 328 327 329 328 328 332 334 339 345 346 345 344 343 342 341 340 339 339 339 339 338 338 339 340 339 339 339 338 338 337 337 336 336 335 334 333 333 333 332 331 330 328 327 327 326 326 326 324 320 317
313 313 314 314 314 312 313 313 313 314 313 313 313 313 314 315 313 314 316 316 314 314 315 315 314 316 323 329 325 324 327 324 324 327 329 329 327 326 328 328 329 333 334 339 345 345 345 344 343 342 341 340 339 339 339 339 338 338 340 340 339 340 339 338 338 337 336 336 335 335 334 333 333 333 332 331 329 327 327 327 326 327 325 321 318 316
312 312 314 314 313 312 312 312 313 314 313 313 313 313 314 315 314 315 316 317 316 315 315 315 315 316 325 332 327 325 326 324 326 327 326 328 327 326 328 328 331 333 334 339 345 345 345 344 343 342 341 340 339 339 339 339 338 338 340 340 339 340 339 338 338 337 336 336 334 334 333 333 333 332 331 330 328 326 326 326 327 326 323 319 317 315
311 312 314 315 313 313 314 313 313 313 313 313 313 314 314 314 315 316 316 318 319 317 315 315 315 316 323 329 326 324 325 325 326 325 325 329 328 326 328 328 331 332 332 337 343 344 343 343 343 342 341 340 340 339 339 339 338 338 339 340 340 340 339 338 337 336 335 335 333 333 332 332 332 331 331 329 327 326 326 327 327 325 320 318 316 314
311 312 314 315 314 314 314 314 314 313 313 313 313 314 314 314 314 315 316 317 317 316 315 315 316 318 323 325 323 323 325 324 326 327 330 332 329 327 329 328 329 333 333 335 338 340 341 343 343 342 341 341 340 340 339 338 339 338 338 340 340 339 339 338 337 335 334 333 332 332 332 332 332 331 330 328 326 327 327 327 327 323 319 317 315 313
311 312 314 314 314 314 314 313 313 313 313 313 313 313 314 315 315 315 316 316 316 316 315 317 319 320 321 323 323 323 325 325 326 330 332 333 332 332 334 331 331 335 336 336 338 340 342 343 343 341 341 341 340 340 339 338 339 338 338 339 339 339 339 337 336 334 333 332 332 332 332 332 331 329 329 328 328 328 328 327 326 322 318 316 314 312
312 312 313 314 314 314 313 313 313 313 313 313 313 313 313 314 316 317 317 317 318 317 315 319 323 321 320 322 323 323 325 326 327 328 329 329 330 332 335 336 336 338 338 337 340 342 342 343 342 341 340 341 340 339 339 338 338 337 337 338 339 339 338 337 335 334 333 332 332 333 332 331 329 328 328 328 328 328 328 327 324 320 317 316 314 312
312 312 313 313 313 313 313 314 314 313 313 313 313 313 314 315 316 318 319 318 319 318 317 320 325 323 321 322 325 326 327 327 326 326 326 327 328 327 331 335 336 337 338 337 338 340 341 342 342 341 340 340 340 340 339 339 338 338 337 338 339 338 338 336 335 334 333 332 332 332 332 330 328 328 328 329 328 328 328 325 321 318 317 315 314 312
312 312 313 313 313 313 313 314 314 313 313 313 314 314 314 315 315 316 318 318 319 320 321 323 325 325 324 325 327 329 329 327 326 326 325 325 326 326 328 331 332 334 336 335 336 339 341 341 341 341 340 340 340 340 339 338 338 338 337 337 338 338 337 336 335 334 334 332 332 332 331 329 328 328 329 329 328 328 327 324 320 318 316 315 314 312
312 313 313 313 313 314 314 314 314 314 313 313 314 314 314 314 315 315 317 319 320 320 323 326 324 322 323 327 328 327 327 326 325 325 325 324 326 327 327 329 331 333 334 333 335 339 341 341 341 340 340 341 340 340 339 338 338 338 337 336 337 338 337 336 335 335 334 332 332 331 329 328 328 329 330 329 328 328 326 323 319 317 315 315 314 312
312 312 313 314 315 315 314 314 315 314 314 314 314 315 315 315 316 316 317 319 320 320 322 324 321 318 321 326 325 324 325 325 325 325 325 323 324 326 328 329 332 334 334 334 335 338 340 340 340 340 340 341 341 340 339 338 338 337 336 336 337 337 337 336 335 334 333 332 330 329 328 328 329 330 330 329 328 327 325 322 319 317 315 315 314 312
312 312 313 315 315 315 314 315 316 315 316 316 316 316 316 316 317 317 317 318 320 320 321 320 319 320 323 325 324 323 324 324 324 324 324 323 322 325 327 328 331 332 333 334 335 337 339 339 339 340 340 341 341 339 339 338 338 337 336 336 336 336 336 335 334 333 332 331 329 328 328 329 331 330 329 329 328 326 324 322 320 317 315 314 313 311
313 313 314 315 316 315 315 316 318 318 317 317 317 317 317 317 317 318 318 319 319 318 319 319 319 321 324 324 323 323 323 322 322 322 323 323 324 325 326 327 329 331 333 334 335 335 337 338 338 340 340 340 340 339 338 338 337 336 336 335 335 336 336 335 333 332 331 330 329 329 330 331 331 330 329 329 328 326 324 322 319 317 315 314 313 311
313 313 314 315 315 315 315 317 318 319 319 318 318 318 317 317 318 319 319 319 318 317 318 319 319 320 321 322 322 321 321 320 320 321 323 324 324 325 326 326 327 330 333 335 335 334 335 337 338 340 340 340 339 338 338 337 337 336 335 335 335 335 335 334 333 331 331 330 330 330 331 331 330 329 329 327 326 326 323 320 319 318 315 314 312 311
313 313 314 314 315 316 316 318 319 320 320 318 319 318 317 318 319 319 319 319 318 318 318 318 318 319 320 320 320 319 319 319 319 321 324 324 324 324 324 324 326 329 334 336 335 333 334 336 339 339 339 338 338 338 338 337 336 335 335 335 334 334 333 333 332 331 330 329 329 329 330 330 329 328 327 326 326 327 323 320 319 318 315 313 312 311
313 314 314 315 316 317 317 318 320 320 320 319 320 320 319 318 319 320 319 319 319 319 319 318 319 319 319 320 319 318 319 319 320 322 323 323 323 323 323 323 325 329 334 336 335 333 334 337 339 339 338 337 337 337 337 336 335 335 334 334 333 333 332 331 331 331 330 329 328 328 328 328 327 326 325 325 327 328 324 320 319 317 314 312 312 311
313 313 315 316 316 316 317 319 320 320 319 321 323 324 324 321 321 321 319 318 319 319 318 319 319 319 320 320 319 319 319 319 319 320 322 321 321 322 323 325 328 331 334 335 335 335 335 338 339 339 337 337 337 337 337 336 335 334 333 333 332 331 331 330 330 330 329 328 328 327 327 327 326 325 325 326 328 328 324 320 318 317 314 312 312 311
314 314 315 316 316 316 317 319 321 319 319 322 324 324 324 322 322 322 317 316 320 321 318 318 319 320 321 320 319 320 319 318 319 321 324 323 322 325 325 325 329 332 333 335 336 337 337 338 339 338 337 336 336 336 336 336 334 333 332 332 331 331 330 330 330 330 329 329 328 327 326 326 326 327 328 328 328 327 324 320 318 317 314 313 312 311
314 314 314 315 315 316 317 318 320 319 319 322 323 322 322 321 322 321 316 317 324 327 323 321 320 320 320 320 321 321 319 318 321 325 328 327 326 328 328 327 328 331 334 336 337 337 338 339 338 338 337 337 336 335 335 335 333 332 331 331 331 330 330 330 330 330 329 329 328 327 326 326 327 328 328 328 328 327 324 321 320 317 315 313 312 310
313 313 315 315 316 316 317 318 319 319 320 322 323 323 322 321 320 319 319 322 328 329 327 325 324 322 321 320 319 319 319 322 325 328 329 329 329 328 328 328 329 331 334 337 337 337 338 338 337 337 336 336 336 335 335 333 331 330 330 330 330 330 330 330 330 330 329 328 327 325 325 325 327 327 328 328 328 327 324 322 320 318 316 314 312 311
313 313 315 316 316 317 317 319 319 319 319 321 324 324 323 321 319 320 324 327 328 327 327 327 326 325 325 324 320 318 323 329 331 332 331 330 330 330 330 331 333 333 335 337 337 338 337 336 336 336 336 336 335 334 334 333 331 330 330 330 330 330 330 330 330 328 327 327 325 323 323 324 326 327 327 328 328 327 324 322 320 318 316 315 313 311
314 315 315 316 316 317 318 318 320 320 320 321 324 324 325 325 323 324 328 329 327 327 327 327 326 325 326 328 324 320 326 331 333 334 333 330 331 334 334 334 336 336 336 337 338 338 337 336 336 336 335 335 335 334 333 332 331 330 330 330 331 331 330 330 330 329 327 325 323 322 323 326 327 327 328 328 328 327 325 322 320 318 316 315 314 311
314 315 315 316 317 318 318 318 319 320 320 322 324 325 325 325 325 325 327 327 327 328 328 328 328 327 326 328 326 321 325 329 329 331 333 332 334 336 336 335 336 337 337 337 337 337 336 335 335 335 335 334 334 333 332 331 331 330 330 330 330 330 330 330 330 329 326 323 322 324 326 328 328 328 328 328 328 327 325 322 320 317 315 314 313 311
315 316 317 317 318 318 318 319 319 318 320 323 326 325 324 324 324 324 325 326 327 328 328 329 331 330 329 330 327 322 324 326 325 328 333 333 333 334 335 335 335 336 337 336 336 336 335 334 334 334 334 334 333 332 331 331 331 330 330 330 329 329 329 329 328 327 325 323 324 327 328 327 327 328 328 327 327 327 325 323 321 318 315 313 312 310
316 318 319 318 318 317 317 318 318 319 321 324 325 324 323 323 324 325 326 325 325 326 326 327 329 329 330 331 330 325 325 326 326 328 332 334 333 334 335 335 334 334 336 336 335 335 335 334 334 333 333 333 333 332 332 331 331 330 330 330 330 329 328 328 328 326 325 325 327 328 327 326 327 327 327 327 327 325 324 323 322 318 316 314 312 310
316 318 318 318 318 318 318 319 320 321 323 324 324 324 324 323 324 325 325 325 324 324 325 325 327 328 328 329 329 327 327 328 326 327 331 334 335 335 336 336 335 335 336 336 335 335 335 334 334 334 333 333 332 332 332 332 331 330 330 331 330 329 328 328 328 327 326 326 327 328 327 326 326 326 327 326 325 323 322 321 321 318 316 315 313 310
318 319 318 318 317 318 318 321 322 322 323 324 324 324 324 324 323 323 324 324 324 324 324 323 325 326 327 328 329 329 330 329 328 328 330 331 333 335 336 336 336 336 336 336 335 334 334 334 333 334 333 333 332 332 331 331 331 330 330 330 330 329 329 329 329 328 327 325 325 327 327 326 325 326 327 326 324 323 322 321 320 318 316 315 313 311
319 319 319 319 319 318 319 322 322 322 323 323 323 323 323 323 322 323 325 325 324 325 324 323 323 324 324 327 329 330 331 331 330 330 331 330 330 331 331 333 334 334 334 335 335 334 334 334 333 333 333 333 332 332 331 331 331 330 330 330 330 329 328 328 328 327 326 323 322 323 325 325 324 325 326 326 325 323 322 322 320 318 315 314 313 311
319 320 319 319 320 319 320 322 323 322 322 322 321 322 322 322 322 323 325 325 325 325 324 324 323 322 322 323 325 328 330 331 332 332 333 333 332 330 328 329 331 332 332 333 334 334 334 333 333 333 333 333 332 331 331 331 330 330 330 330 330 329 328 327 326 325 323 322 321 321 322 324 324 325 325 325 324 322 321 320 319 317 315 314 313 310
319 320 320 320 319 320 321 322 323 323 323 322 322 322 321 322 323 324 325 324 324 324 324 324 324 323 322 322 322 324 326 329 330 332 333 333 333 333 332 331 332 331 331 332 333 333 332 332 333 333 333 332 331 331 331 331 331 330 330 330 330 329 329 327 325 324 323 321 321 322 323 324 324 324 324 323 322 322 320 319 317 315 313 313 312 311
Wind_Speed
17 11 10 12 14 17 20 22 23 22 24 24 23 21 19 19 19 18 18 22 21 15 19 27 28 29 25 19 21 24 23 17 16 14 16 20 22 22 23 21 22 22 23 29 31 33 34 33 32 30 28 28 28 27 25 27 28 27 24 22 22 24 24 23 22 21 21 20 19 18 17 15 15 14 13 14 13 12 11 9 8 9 9 9 9 10
16 11 13 17 19 20 22 24 25 25 27 25 19 18 19 19 17 19 23 26 22 15 18 25 26 27 24 18 20 25 21 14 14 11 12 19 21 20 20 21 25 21 20 30 31 28 30 32 32 29 27 28 30 30 28 28 28 25 22 22 23 24 25 24 22 21 21 20 19 18 17 16 15 15 14 15 16 15 13 10 10 10 10 10 10 10
13 12 16 20 20 21 22 23 26 28 26 21 17 16 15 15 17 20 23 24 21 15 16 23 22 20 23 24 23 24 19 19 26 26 24 26 23 22 22 21 24 20 23 31 29 25 27 28 29 26 24 28 30 30 30 28 26 23 22 22 23 25 25 23 21 21 20 20 18 17 17 16 17 18 18 18 19 17 14 12 12 11 11 11 11 11
10 13 19 21 20 22 23 23 26 25 20 17 16 15 14 18 19 14 17 24 24 18 18 23 22 16 19 24 23 25 28 25 30 35 35 34 30 28 27 24 23 21 25 29 28 31 31 26 26 25 24 28 30 30 31 28 24 23 24 22 23 27 25 23 22 21 19 18 17 16 17 18 21 22 22 21 19 17 14 13 12 12 12 12 12 11
14 15 19 22 22 23 23 23 24 19 14 17 20 17 16 19 21 16 16 22 23 22 23 23 19 13 16 21 20 22 28 28 28 33 34 37 36 33 31 28 25 22 25 32 35 37 33 27 27 26 25 28 29 29 30 28 26 26 24 22 24 27 26 24 23 22 21 19 18 20 21 23 24 24 24 22 19 17 16 14 13 14 14 13 11 11
16 19 20 21 22 24 22 21 22 18 13 16 21 23 22 20 22 22 20 18 16 17 23 22 15 12 18 23 18 17 18 21 19 23 28 35 36 34 33 29 27 26 25 34 40 39 34 31 29 27 26 28 30 30 29 28 28 29 25 23 26 27 26 26 24 23 24 22 22 24 24 25 23 22 22 21 19 18 16 14 13 14 14 12 11 11
12 20 22 20 21 23 22 19 22 21 14 12 18 24 25 24 24 24 23 20 13 13 20 22 16 12 15 19 18 17 18 17 17 16 23 33 35 33 31 28 26 25 26 32 37 38 35 32 30 29 28 29 31 30 28 29 30 29 26 26 28 27 28 27 26 26 26 25 24 23 22 23 21 20 20 19 19 18 16 14 14 14 12 11 11 11
13 20 22 22 21 19 18 16 19 23 16 12 17 22 24 27 26 24 24 19 13 13 18 23 22 14 11 14 18 21 20 19 19 19 20 27 33 33 29 28 25 25 29 32 34 37 36 34 32 30 29 30 31 29 29 31 32 31 28 28 29 29 29 29 28 28 26 25 24 21 22 22 20 19 18 19 19 18 15 14 14 13 12 11 11 11
16 20 20 22 20 15 15 17 20 23 18 14 19 21 23 27 26 24 21 15 15 17 15 19 22 14 10 14 16 19 21 20 21 23 22 22 30 32 29 29 27 26 31 33 34 36 36 36 34 31 31 30 28 28 31 33 34 32 30 29 31 31 31 31 29 28 25 23 22 21 22 21 19 18 18 19 19 17 16 14 14 14 13 13 12 11
15 19 20 19 17 13 16 20 22 22 18 17 22 22 22 23 23 22 18 14 15 16 13 17 21 15 12 14 15 15 18 19 19 20 19 19 29 32 28 29 29 29 34 35 34 35 35 37 34 31 32 31 28 29 31 33 33 32 31 31 32 32 33 32 30 27 25 23 22 23 22 22 21 19 18 20 19 17 16 15 14 15 15 15 13 12
17 21 19 16 15 15 17 20 22 23 21 19 21 21 18 18 19 17 13 13 13 12 14 22 25 19 11 10 12 14 14 15 15 14 14 16 25 30 28 29 31 32 35 35 34 36 37 36 33 30 31 31 30 31 31 32 33 32 33 33 32 31 31 31 30 27 26 24 23 23 23 24 24 21 20 20 20 18 16 15 16 16 15 14 13 13
20 19 14 13 18 19 17 19 20 23 24 20 17 16 13 13 16 13 10 13 12 9 15 24 25 19 10 8 12 16 20 21 17 12 16 18 21 27 28 30 32 31 32 33 33 36 38 36 33 31 31 31 32 33 33 33 34 33 34 35 33 30 29 30 29 26 25 25 23 23 22 24 24 22 21 20 20 20 18 17 17 16 15 14 14 14
16 16 13 13 19 21 17 14 16 19 21 18 15 13 11 9 11 11 11 11 10 10 16 22 22 16 12 12 14 18 22 25 21 16 18 21 22 26 29 30 30 30 30 32 32 36 40 38 36 34 32 33 35 35 34 34 35 34 35 36 34 30 29 29 28 26 25 25 25 25 24 25 25 22 20 19 19 21 19 18 17 15 14 14 15 14
10 13 16 12 11 18 18 12 11 14 16 16 15 12 11 9 8 11 12 10 9 12 18 23 20 14 13 13 16 20 21 21 23 24 23 23 27 29 31 31 30 30 31 32 31 36 43 42 39 37 36 37 37 35 35 35 36 35 34 34 33 31 30 29 28 28 26 27 27 27 27 26 25 22 20 19 19 20 18 17 15 13 13 13 14 13
10 10 12 10 8 13 18 15 12 13 16 16 15 13 11 9 9 10 11 10 10 12 19 22 15 12 12 10 12 17 20 17 19 26 27 24 28 31 32 31 30 31 31 31 30 34 42 45 42 39 38 39 38 36 35 35 36 36 34 32 32 32 30 28 29 30 29 29 29 28 28 27 24 21 20 18 18 19 18 16 14 13 12 12 12 12
13 9 9 15 15 14 15 16 17 16 14 13 15 15 12 11 9 7 8 10 10 9 12 13 8 9 11 11 14 16 17 17 16 23 24 23 27 29 30 31 31 32 31 31 32 33 40 46 44 40 38 38 38 37 36 36 37 37 34 32 33 33 31 30 30 31 31 30 29 28 28 27 24 21 19 18 18 18 17 15 13 13 12 11 12 14
11 8 8 15 18 18 16 17 18 17 12 10 14 14 11 13 11 7 9 9 7 8 7 7 9 10 10 12 15 13 14 18 19 23 18 20 24 25 27 30 30 31 31 34 38 38 41 45 41 39 39 37 37 38 38 38 38 37 35 33 34 34 33 33 31 31 32 31 30 29 28 26 24 21 20 18 18 17 16 13 12 13 13 12 13 14
8 6 8 13 16 19 21 21 19 18 14 9 11 14 12 14 13 8 7 7 7 8 6 11 15 13 11 9 9 13 14 15 19 19 10 14 17 19 25 30 30 31 33 36 42 42 41 44 41 39 39 36 36 38 39 38 37 37 35 32 35 37 36 35 33 32 33 32 31 30 27 25 23 22 21 20 19 18 16 14 13 14 14 14 13 13
8 4 6 11 14 17 19 20 16 18 23 16 12 14 12 11 11 7 5 6 9 9 6 14 19 13 12 9 8 16 16 12 15 15 12 12 13 16 24 30 30 31 34 36 43 44 41 45 43 39 37 35 35 37 38 37 36 36 34 31 34 35 34 35 33 32 32 31 31 29 26 25 24 24 23 21 20 19 19 17 16 15 15 14 13 12
7 2 2 11 15 16 13 13 10 12 20 20 14 14 12 8 7 6 5 5 8 8 7 13 15 10 10 10 11 15 15 13 14 11 12 12 12 15 22 28 29 31 34 36 42 43 42 45 43 37 36 36 36 36 37 36 36 37 36 33 34 34 33 34 33 32 30 30 31 30 27 27 26 25 25 24 22 21 20 19 17 17 17 16 14 13
3 1 1 10 14 15 10 9 10 10 15 16 13 12 11 7 5 5 6 7 8 8 7 9 9 8 8 9 12 13 13 13 12 8 10 10 13 17 21 27 29 30 34 36 39 40 40 44 42 36 34 34 34 35 35 35 35 36 37 35 36 36 34 33 33 32 31 30 30 30 29 27 26 27 27 25 24 22 19 17 17 19 20 18 15 13
1 1 2 6 8 11 10 11 14 15 16 14 10 10 11 9 7 6 7 8 8 7 8 8 7 8 7 6 10 10 12 12 11 9 10 11 18 22 23 29 30 30 33 35 38 39 39 40 40 37 35 32 33 35 35 36 36 36 37 37 36 35 33 34 34 33 33 31 30 30 28 27 27 29 28 26 24 22 19 18 19 20 19 15 14 15
4 2 3 6 7 9 11 13 15 17 18 16 12 11 13 11 9 7 7 8 9 9 10 9 7 6 4 4 9 8 12 14 14 11 10 13 20 22 24 27 27 30 32 32 37 39 38 39 39 38 36 33 34 35 35 36 36 37 38 38 37 34 34 35 35 34 34 32 31 30 28 28 29 30 29 27 25 22 19 19 20 19 16 13 14 16
5 3 4 5 7 8 10 14 17 18 16 15 13 13 13 13 12 10 9 8 7 9 10 8 7 6 3 2 8 9 12 12 11 12 13 12 15 18 23 24 23 29 30 29 35 37 35 37 38 37 37 36 36 35 34 35 36 37 39 39 39 38 37 37 35 34 33 33 33 31 29 31 32 31 31 29 25 23 21 21 21 18 14 15 16 17
3 2 3 3 4 7 9 11 13 14 13 10 11 13 15 18 18 14 10 6 3 7 11 8 6 6 2 2 3 8 13 12 9 13 13 10 13 16 21 24 21 26 30 29 31 31 30 34 36 37 38 37 35 34 34 34 34 37 40 40 39 39 38 37 36 33 31 33 33 31 30 32 33 34 33 29 26 25 24 23 20 16 15 17 18 19
3 2 3 4 4 6 8 8 8 9 9 8 11 16 18 21 22 15 7 3 2 6 11 8 3 6 5 2 1 4 10 12 11 10 6 6 9 10 17 28 28 27 32 31 29 31 32 35 36 36 37 36 34 34 35 34 33 36 40 40 39 40 38 36 36 33 31 32 32 31 33 34 34 35 32 28 28 27 25 23 21 16 17 19 19 21
3 3 6 6 6 6 5 8 10 10 10 11 14 18 18 17 19 14 6 3 5 6 8 5 5 8 7 6 4 4 6 8 9 10 8 8 9 10 9 20 27 28 32 32 33 36 36 36 35 33 35 35 34 34 34 34 33 35 39 40 39 40 38 35 36 35 32 32 32 33 35 36 35 34 31 30 29 26 25 24 20 16 19 20 21 22
4 4 6 7 10 11 9 8 14 16 14 15 17 18 18 18 17 13 8 7 7 6 7 6 9 10 6 7 9 7 7 5 7 9 10 9 9 11 14 15 18 22 25 26 31 35 34 33 33 32 34 34 33 33 33 33 34 35 39 40 39 38 37 35 35 35 33 33 34 36 37 37 34 31 30 31 29 25 25 23 17 17 20 21 22 22
4 4 3 6 10 11 12 13 15 18 16 16 18 17 18 18 15 11 9 11 10 6 5 6 6 9 7 7 7 4 2 5 8 8 10 10 9 9 11 15 17 18 21 22 26 31 31 31 32 33 34 34 34 35 33 33 34 35 38 41 39 38 37 35 34 34 34 35 36 37 38 36 32 29 30 31 28 26 26 21 17 20 21 22 23 22
3 3 3 6 10 10 12 15 14 16 18 17 18 18 17 17 15 13 12 12 12 9 5 4 4 6 7 6 8 5 3 7 9 8 10 10 10 8 8 15 19 19 21 24 26 29 30 31 32 33 34 35 37 37 36 36 36 36 38 41 39 38 38 36 34 34 35 37 38 39 37 33 30 30 33 32 29 27 26 21 20 22 22 23 23 22
4 2 2 4 7 9 11 13 16 16 18 18 18 18 18 18 17 15 12 10 10 9 6 4 4 4 3 9 9 4 5 7 7 6 7 7 10 10 7 10 16 19 21 24 26 29 30 31 32 33 35 36 37 38 37 38 38 36 38 40 39 38 38 37 35 36 37 37 37 37 35 32 31 33 34 33 29 27 25 20 20 22 23 23 23 23
4 2 2 3 5 8 9 12 15 13 12 14 17 17 17 17 14 12 11 9 8 7 6 5 4 4 1 8 12 5 2 3 4 7 8 6 7 12 12 11 14 18 20 23 25 27 29 31 31 34 35 35 36 37 36 39 40 37 36 40 40 37 36 37 38 38 37 35 33 33 33 32 34 36 35 32 29 27 25 20 20 22 23 24 24 24
4 4 2 2 4 6 8 9 11 9 6 7 11 14 15 15 13 12 13 11 9 7 5 6 5 3 4 4 12 10 10 9 9 11 11 10 10 11 12 12 14 18 21 23 24 26 29 30 31 33 34 35 36 34 34 39 41 36 35 40 40 37 36 38 40 39 37 34 32 32 33 35 37 37 35 33 30 28 25 21 21 22 24 24 24 25
5 5 3 2 3 5 6 4 6 6 6 6 7 11 16 16 15 13 12 11 11 9 6 6 6 5 6 3 3 3 5 6 8 10 10 8 8 7 6 8 10 15 21 24 26 27 28 28 29 31 33 34 34 31 32 39 39 34 35 39 39 37 36 37 37 35 34 32 31 33 35 38 38 37 35 33 30 28 26 22 21 22 24 25 26 26
5 4 4 3 4 5 5 2 2 5 7 8 10 10 13 15 14 13 12 11 13 12 10 9 9 9 9 5 4 6 7 10 12 8 6 5 6 6 6 8 7 10 16 23 26 26 26 27 29 31 33 33 33 31 33 38 38 35 35 36 38 37 37 37 35 32 30 29 30 35 38 39 38 35 32 31 30 30 26 22 22 24 24 25 27 26
5 4 4 4 4 4 4 3 3 6 8 10 11 10 10 11 10 10 11 12 14 15 14 12 11 11 9 7 8 9 10 15 16 7 6 8 9 9 9 9 9 10 13 19 23 24 25 28 32 34 33 32 32 33 35 37 37 35 35 36 37 36 35 35 33 30 30 30 30 34 37 37 36 33 30 31 32 31 27 24 25 26 25 26 27 27
5 3 3 3 4 3 3 3 4 7 6 6 5 6 7 8 8 7 6 8 12 12 12 12 12 12 11 10 11 12 13 16 12 5 7 12 13 12 11 9 10 13 15 17 21 24 26 28 31 34 32 30 32 34 36 37 37 35 36 36 36 35 33 32 32 32 32 31 30 32 33 33 33 32 32 33 32 30 29 28 27 26 25 27 28 28
5 4 4 3 3 3 3 3 4 5 3 2 5 10 8 5 5 5 4 6 9 10 11 11 12 13 13 10 11 12 13 12 7 5 12 19 18 13 11 9 9 14 18 20 21 24 28 29 31 32 31 30 34 35 34 36 37 35 35 37 34 32 32 32 33 35 34 32 32 32 30 30 32 33 34 34 32 30 29 29 27 25 26 27 28 28
5 4 4 5 4 4 3 4 5 3 0 3 9 13 14 12 5 3 6 6 5 8 13 15 13 12 10 10 11 12 9 7 6 5 7 13 14 11 8 8 7 9 14 20 23 25 28 30 30 31 31 31 34 35 33 34 36 34 34 36 33 30 31 31 32 34 34 33 32 30 28 28 30 34 35 33 31 29 31 32 30 27 27 27 27 27
6 3 4 5 5 4 4 4 5 2 2 6 8 11 15 13 6 4 8 4 3 5 5 10 11 11 13 13 10 9 8 7 4 3 5 6 8 7 7 9 8 6 9 16 22 25 28 30 31 31 29 30 33 35 34 34 34 33 32 33 31 29 31 31 31 32 32 31 31 30 29 28 30 34 35 33 30 29 31 34 31 28 27 26 26 28
5 3 4 5 5 5 4 4 4 3 2 4 7 12 15 10 5 5 5 1 6 10 9 7 5 7 11 14 12 9 10 7 3 5 6 6 7 9 11 12 12 12 13 16 22 28 30 29 28 27 27 28 31 33 33 33 32 30 29 28 27 28 32 33 31 30 29 29 28 28 29 30 31 33 34 32 30 29 29 30 29 28 27 26 27 28
4 4 4 5 4 4 4 4 3 3 4 7 11 13 9 4 4 2 2 5 8 8 9 8 7 10 10 7 14 13 6 7 7 5 2 4 8 12 14 15 18 19 20 21 25 30 31 28 26 26 27 30 31 31 33 34 31 28 28 28 27 28 32 34 32 30 29 29 29 28 30 32 33 34 34 33 31 30 29 28 28 28 27 26 26 27
4 4 3 2 1 2 3 4 2 2 5 8 10 9 4 3 3 6 6 7 9 10 8 7 5 7 14 13 11 9 9 10 5 3 2 3 9 13 15 17 20 23 25 27 29 31 31 29 28 28 29 31 33 31 30 31 29 26 27 29 28 28 29 30 32 32 29 28 30 31 32 33 33 33 34 33 31 31 30 28 27 27 26 25 25 25
4 4 2 1 1 0 2 3 1 4 6 2 4 2 2 6 11 15 11 6 10 14 11 10 8 4 7 13 11 3 7 6 2 2 4 4 10 15 17 19 21 23 25 28 30 29 27 27 30 32 31 31 33 31 27 27 27 26 26 28 29 30 30 31 32 33 32 30 30 32 32 31 31 32 33 32 31 29 28 26 26 26 26 26 25 25
4 3 1 1 3 3 3 3 5 11 7 6 8 2 3 7 11 16 11 6 9 14 15 13 13 9 5 9 11 6 4 3 3 2 4 6 13 17 19 21 23 23 22 24 28 27 25 25 29 32 32 32 31 30 27 27 28 28 27 27 27 30 33 34 33 33 33 31 29 28 29 30 31 32 32 31 30 28 27 26 26 26 27 27 26 27
5 6 2 3 4 5 6 7 9 9 2 10 8 4 5 5 8 10 10 8 8 11 13 12 13 13 11 10 7 3 3 2 3 3 7 9 15 17 17 19 22 23 22 23 27 26 23 24 27 30 31 30 29 28 28 28 28 27 26 25 26 29 32 35 35 33 32 30 27 26 28 31 32 32 32 31 29 28 27 25 24 25 27 28 28 28
4 4 4 5 4 2 3 2 2 5 7 7 4 4 5 3 6 7 8 8 9 10 10 10 12 14 13 10 5 1 1 3 3 7 10 11 15 17 18 19 20 22 22 24 25 24 23 25 27 29 30 28 27 28 29 28 27 27 26 25 27 29 31 34 37 36 33 31 28 27 27 29 30 31 31 30 29 28 25 22 22 24 26 28 29 29
4 8 6 6 5 2 2 7 8 6 7 8 6 5 6 6 7 7 3 6 11 12 10 10 12 15 14 12 8 6 5 5 3 6 5 7 12 15 19 19 18 19 23 25 24 21 22 24 25 27 29 28 27 28 27 25 25 26 26 26 27 28 27 29 33 35 32 29 29 29 29 29 29 30 31 30 29 28 24 22 23 24 26 28 29 28
7 10 7 7 8 3 2 9 10 4 5 11 9 10 9 8 14 15 4 9 10 10 10 10 12 14 15 14 14 13 11 8 5 4 5 6 9 12 15 16 15 15 19 23 23 21 22 23 23 25 28 27 26 26 25 24 25 25 25 27 30 29 27 26 29 30 27 25 25 27 31 32 30 29 30 30 29 27 24 22 23 24 26 27 26 25
6 7 5 7 7 3 1 5 7 5 4 8 6 7 6 6 14 17 8 11 10 9 10 11 11 13 12 13 14 15 15 13 10 9 8 5 5 9 12 14 16 15 16 20 22 21 22 23 23 25 27 24 22 23 23 23 23 24 24 27 29 29 30 31 31 28 25 23 22 24 28 30 29 28 30 30 29 27 25 23 23 24 25 26 24 23
4 3 3 3 4 6 8 7 5 5 4 5 2 3 1 3 4 8 8 11 10 11 12 13 14 13 11 12 13 14 15 15 12 10 11 10 7 7 8 10 12 15 16 19 21 19 19 21 24 25 24 21 20 21 21 21 22 22 24 26 26 27 32 36 34 28 23 20 21 22 25 27 27 28 29 30 29 28 27 26 26 25 25 26 25 24
Wind_Direction
208 218 216 218 221 215 216 221 226 229 226 223 217 218 220 220 228 221 223 235 219 205 226 227 227 231 223 216 234 238 222 223 246 226 178 194 219 223 218 205 207 217 195 185 186 183 184 185 183 183 184 184 186 192 191 188 187 185 185 184 183 183 186 195 197 196 195 195 198 199 197 195 189 186 197 208 212 215 213 207 205 196 190 185 181 180
206 222 222 217 222 220 218 222 227 232 232 232 227 221 220 221 226 215 220 232 222 218 234 228 228 232 227 226 239 239 224 209 217 210 198 215 219 219 219 206 208 212 183 173 170 172 184 186 183 183 184 186 189 191 193 190 186 184 184 182 184 185 191 199 200 199 199 200 204 203 198 194 190 194 203 208 211 212 209 204 198 193 186 181 183 179
213 219 225 222 221 223 224 222 226 231 231 235 237 229 222 219 223 221 220 225 218 218 233 226 223 230 225 218 230 244 234 207 204 203 207 218 219 217 223 220 212 196 162 159 162 173 187 187 185 188 189 190 190 190 193 191 185 184 181 179 186 192 196 201 201 201 199 198 202 202 196 191 192 201 206 208 211 211 208 207 203 196 194 191 187 183
225 216 219 225 222 220 225 223 223 229 230 233 234 229 226 220 217 218 217 221 222 219 229 232 226 227 230 218 213 232 242 227 202 196 200 210 217 216 218 223 214 188 160 160 172 183 187 188 189 191 189 187 189 190 192 190 184 183 179 180 192 196 197 201 201 198 195 196 197 194 188 185 193 201 204 208 211 211 208 207 203 197 200 200 194 193
232 226 215 220 225 220 222 224 221 223 227 229 232 229 226 222 218 215 212 216 223 224 225 232 232 230 234 229 213 215 238 240 207 192 196 205 213 215 214 214 212 198 169 163 174 181 184 188 189 190 188 186 190 192 191 187 183 183 180 184 197 197 196 201 200 194 193 191 189 189 186 186 196 203 205 208 208 207 208 207 203 201 204 207 205 208
231 232 224 218 223 222 221 223 221 220 223 226 230 229 228 231 225 219 217 214 216 222 223 224 228 228 228 232 224 200 219 242 223 198 197 204 211 214 210 204 205 205 178 165 173 178 181 187 188 189 190 191 194 193 191 188 186 186 183 189 199 197 196 200 198 195 196 196 194 194 193 193 199 206 206 207 207 206 208 208 207 207 206 207 212 215
230 228 231 226 221 221 222 223 221 220 222 224 224 224 229 239 234 220 216 219 220 218 218 220 225 231 226 230 230 212 204 219 234 223 202 203 209 210 207 204 202 193 169 164 174 180 182 186 188 190 192 196 196 191 190 191 191 190 187 191 199 196 195 198 199 199 202 204 203 200 199 202 204 207 205 205 207 208 209 210 208 205 202 203 210 213
226 224 228 231 225 220 221 222 219 219 223 223 216 217 226 235 235 227 220 218 223 224 217 218 225 231 230 225 222 223 220 211 220 230 213 201 201 204 205 205 200 180 167 169 176 181 184 186 191 193 193 196 195 190 190 191 191 191 188 191 197 196 195 200 202 204 206 205 202 199 202 205 207 210 205 202 208 209 208 209 204 200 204 209 210 211
225 226 223 225 227 222 219 221 218 219 227 225 216 216 222 227 231 233 230 224 219 224 222 215 219 224 229 224 213 218 227 222 219 220 218 204 190 195 204 203 195 182 181 187 184 183 188 192 196 197 193 193 192 191 191 189 190 190 187 191 196 196 197 202 205 206 206 202 199 201 202 200 204 211 205 202 209 210 206 206 203 201 210 216 213 215
233 235 229 224 227 224 221 221 218 220 224 224 223 223 218 220 230 234 233 235 227 222 222 216 215 219 227 222 211 212 216 219 222 213 214 206 182 186 200 197 192 188 190 197 194 190 193 193 194 193 191 191 190 191 191 189 191 189 187 192 195 194 197 201 204 203 200 198 199 202 201 197 202 206 203 204 209 209 204 202 203 205 213 217 215 219
243 243 238 229 227 227 225 220 219 221 221 223 226 225 218 212 221 230 231 237 235 224 223 222 216 212 227 225 208 221 227 228 231 205 205 208 179 180 195 193 193 192 189 195 195 191 191 189 187 187 188 190 190 193 192 190 191 188 186 193 195 195 198 200 203 203 199 197 197 199 199 199 205 206 204 206 206 206 202 200 206 210 213 215 215 219
242 242 237 230 229 232 232 223 219 219 218 223 224 221 223 212 206 215 226 229 231 223 222 225 215 201 212 222 201 214 230 239 245 213 204 214 187 181 193 195 197 193 186 192 191 183 182 181 181 184 186 188 190 194 192 190 192 189 186 193 197 198 200 202 204 203 199 196 194 197 200 202 206 207 206 205 203 202 200 201 208 211 211 210 211 216
241 239 236 233 230 232 235 222 212 213 213 218 222 219 220 210 196 204 215 221 228 225 219 219 215 210 222 226 211 213 222 229 234 224 213 209 190 186 194 197 198 194 188 193 189 177 175 179 180 183 185 186 191 193 190 188 192 191 188 192 198 200 202 204 201 197 196 194 195 199 202 206 206 205 206 206 203 203 203 204 207 207 207 206 208 213
234 233 233 238 237 229 231 226 205 204 210 213 217 217 214 205 195 201 205 210 219 220 218 213 208 219 232 222 211 215 225 224 216 221 224 203 185 187 194 195 194 194 192 193 191 178 175 179 181 182 184 185 189 190 187 187 191 193 192 193 197 200 204 204 198 195 194 194 198 202 203 206 206 203 205 207 206 206 205 205 205 205 209 210 209 211
223 222 218 225 246 226 222 236 233 209 205 209 213 215 219 212 201 202 199 200 206 209 215 213 206 215 224 226 225 220 227 230 216 221 222 197 182 186 191 194 195 197 196 190 187 179 176 181 182 181 184 186 187 187 187 189 191 194 196 194 195 198 201 200 195 195 195 195 200 202 201 204 204 202 204 206 207 206 203 202 201 204 212 215 210 212
220 224 207 208 229 231 221 238 243 223 206 205 211 216 219 211 204 210 211 208 210 210 211 210 212 220 216 222 236 229 217 217 230 237 221 185 179 185 186 191 195 196 195 185 181 178 177 182 182 181 184 185 186 187 188 191 193 196 198 195 193 196 197 195 194 194 196 197 199 200 201 203 202 200 200 201 203 201 199 195 193 202 212 214 212 215
213 219 212 203 220 234 235 240 233 216 200 198 210 217 213 207 207 209 215 220 224 219 208 201 212 223 228 221 216 222 214 202 222 244 222 174 177 184 178 184 191 193 189 181 177 177 178 181 180 181 185 185 187 189 190 192 193 194 196 193 189 193 195 194 194 194 195 197 198 200 203 202 200 198 194 195 195 190 188 186 187 200 209 212 214 218
230 208 207 208 215 224 234 243 234 218 213 201 200 208 203 205 212 207 203 209 214 216 202 205 215 215 225 225 194 211 224 205 214 230 198 160 180 182 170 179 192 194 187 179 175 175 177 180 180 184 188 189 191 192 193 193 192 194 196 192 188 192 194 193 193 194 196 198 198 200 202 200 199 196 191 189 187 182 181 184 192 201 208 214 217 217
273 240 217 236 227 214 225 236 231 226 226 219 201 204 207 209 211 205 202 196 200 210 201 208 218 217 216 217 189 204 212 203 218 214 170 166 191 181 170 180 193 192 183 176 171 171 176 180 183 187 189 191 194 193 193 192 190 194 197 192 189 191 191 190 191 194 196 198 196 197 198 197 196 195 193 191 189 185 182 188 199 205 210 221 223 216
286 251 258 274 242 208 211 226 224 223 221 216 207 207 215 222 213 199 207 209 199 205 209 208 215 221 215 208 201 202 189 192 224 210 166 176 195 185 176 180 190 187 178 172 167 168 175 180 183 187 187 191 194 191 190 189 189 194 196 191 188 188 189 189 190 192 195 197 196 195 194 194 194 196 196 196 199 196 187 190 199 203 213 229 228 214
325 60 307 281 242 205 203 219 215 209 207 208 208 206 207 214 224 206 201 217 212 203 210 208 212 221 207 203 217 203 170 186 220 192 159 178 195 194 183 181 188 183 172 169 167 170 176 179 182 184 185 188 190 187 188 188 190 193 194 191 187 185 186 187 187 190 193 195 196 195 194 194 194 196 196 198 203 199 191 192 196 201 217 229 221 205
84 75 254 279 240 204 207 214 210 211 208 204 210 215 207 204 219 214 198 214 223 213 210 207 216 220 190 195 229 200 159 186 208 173 162 188 199 197 185 183 185 176 168 167 168 169 173 176 178 180 182 184 185 186 189 190 190 190 191 190 186 184 185 186 187 189 191 194 194 194 196 193 191 193 195 200 201 193 191 194 195 210 227 222 203 192
149 167 229 273 257 213 207 214 219 224 215 203 210 220 208 204 215 215 200 207 218 215 207 207 218 212 165 201 228 187 159 187 198 183 183 195 197 189 176 176 175 167 167 166 165 168 171 172 174 177 179 179 182 186 188 189 189 188 188 188 188 187 186 187 189 189 192 194 193 193 194 192 190 190 193 199 195 187 191 194 199 220 227 203 192 188
154 181 223 267 260 216 207 217 224 231 223 207 209 213 202 201 210 216 205 199 216 216 201 202 213 190 111 260 224 176 160 171 182 197 201 191 186 176 165 167 167 165 167 164 162 167 170 171 173 175 176 177 181 184 186 188 188 187 187 188 191 192 189 189 190 190 193 195 193 191 190 190 190 188 192 197 190 182 188 196 208 222 206 186 188 181
173 190 208 243 232 197 202 216 218 223 227 215 207 210 206 203 209 221 219 201 229 227 205 207 210 176 117 329 225 162 156 154 169 200 202 180 178 180 172 173 174 170 169 164 159 163 169 173 175 176 176 178 181 183 186 187 186 188 188 188 190 190 188 188 188 188 193 195 193 191 188 188 189 189 194 195 185 183 191 201 215 214 187 185 187 177
193 146 179 221 221 198 194 203 204 207 218 221 215 214 212 207 210 219 230 210 222 231 221 219 180 146 143 144 201 169 162 162 169 173 144 119 156 175 178 179 178 171 167 166 167 172 178 180 180 178 178 179 180 183 186 185 185 189 188 189 191 190 188 190 191 192 194 193 190 189 188 188 190 193 195 189 183 189 197 207 218 205 183 185 182 178
204 182 209 232 242 248 224 199 203 209 209 210 215 218 218 221 221 218 222 219 200 224 241 224 128 130 148 155 171 212 197 178 161 143 116 101 102 78 108 161 167 162 160 163 167 174 179 181 181 181 179 180 181 184 185 185 187 189 187 188 191 190 190 192 193 195 194 189 187 188 188 188 191 194 193 187 187 194 200 209 215 195 181 182 179 182
249 218 219 244 254 265 276 242 217 214 215 211 212 216 221 228 228 214 208 215 203 217 243 208 137 125 153 183 174 192 214 170 130 142 158 153 125 91 90 118 137 144 151 157 163 171 177 180 181 182 181 181 183 185 185 186 189 189 187 188 190 190 191 190 190 192 190 187 188 188 187 188 190 194 191 187 190 197 203 209 203 184 182 182 181 188
273 262 232 269 264 260 277 273 234 212 212 215 212 213 216 221 224 215 210 214 213 223 242 221 158 139 174 195 153 139 210 150 131 146 156 154 156 150 138 138 140 149 161 166 170 177 182 182 183 184 183 184 185 185 186 186 187 186 185 187 190 191 190 187 186 188 187 188 188 187 188 189 191 191 188 188 192 199 205 203 188 184 186 183 185 190
236 263 240 274 275 265 273 284 262 224 214 213 212 216 217 216 222 223 216 216 224 239 258 264 231 180 169 129 96 66 65 109 112 117 131 149 164 170 171 163 159 166 177 179 179 183 185 186 187 186 186 186 186 186 187 186 185 184 184 187 191 192 189 185 186 188 187 186 187 187 187 189 190 189 189 190 193 200 204 195 183 187 186 182 188 189
183 218 236 281 287 277 269 278 276 247 220 210 211 216 217 214 216 220 220 227 236 238 247 271 265 235 137 99 93 48 43 86 102 130 157 175 165 164 191 186 170 175 187 188 186 186 187 189 190 189 188 188 188 188 188 186 183 181 182 187 190 189 187 186 187 188 186 183 184 186 187 188 190 191 191 192 194 199 201 192 184 186 184 184 190 187
186 227 311 316 285 276 265 268 276 264 233 221 217 215 217 214 210 214 222 234 245 242 246 251 241 260 277 121 124 136 212 179 197 209 212 214 176 171 186 193 185 185 191 193 189 189 191 192 193 192 190 189 189 188 187 187 183 178 179 187 190 188 187 187 185 185 185 184 185 187 188 189 192 192 193 195 195 194 195 191 185 185 185 187 189 187
217 230 264 289 270 268 263 272 292 296 280 254 226 211 216 217 208 212 216 220 231 244 255 240 216 259 293 163 147 168 202 204 207 210 208 210 204 189 184 191 195 195 197 195 190 190 193 194 194 193 191 191 190 188 187 186 183 179 181 186 189 187 186 185 184 183 184 186 189 191 190 190 191 192 195 198 195 190 193 193 188 189 189 188 190 190
233 238 238 262 278 275 265 297 324 287 247 255 250 221 215 215 210 213 215 210 214 230 262 261 234 258 283 255 158 204 233 234 230 211 196 196 191 178 188 205 202 198 197 192 191 193 194 193 194 192 190 192 191 188 187 186 183 179 180 183 187 188 185 182 181 181 182 186 191 193 191 190 192 192 194 197 193 189 193 192 187 194 194 187 190 192
219 247 251 257 272 276 275 287 303 262 239 254 271 249 226 222 216 211 216 215 209 216 237 246 237 245 258 259 275 283 279 276 268 235 178 179 181 178 206 217 210 208 199 189 189 196 196 194 192 188 187 191 191 186 185 186 183 180 179 181 186 189 187 184 183 182 181 183 187 191 192 192 193 193 194 194 190 188 192 187 184 197 197 187 190 194
198 237 253 271 278 278 282 257 246 281 268 246 251 249 236 235 227 208 208 213 208 205 213 224 233 246 255 250 246 254 260 265 264 242 186 208 214 204 209 214 211 211 201 188 188 194 197 195 190 187 187 190 190 188 186 185 183 180 178 181 185 187 186 187 188 187 183 181 183 187 189 190 192 193 193 192 192 192 190 184 188 198 196 189 191 194
198 221 237 266 282 272 283 281 276 290 268 218 238 264 240 230 229 220 210 211 211 205 203 210 221 231 241 244 236 237 248 256 258 228 206 229 232 214 208 219 212 194 187 188 190 192 195 191 187 187 188 187 188 190 188 184 181 177 176 178 182 185 188 189 189 188 185 183 182 183 185 187 189 190 190 192 197 198 192 190 198 201 193 190 194 196
195 220 238 252 274 276 298 310 284 272 235 195 318 317 308 288 245 230 242 225 208 203 201 206 215 221 227 234 232 235 247 252 248 221 221 227 226 212 205 211 197 180 181 185 184 186 187 186 186 188 188 186 187 189 187 184 180 176 174 177 179 181 185 189 190 190 188 185 183 183 185 188 188 190 192 196 204 203 193 193 203 202 192 194 198 196
194 221 267 270 272 275 293 307 291 288 303 288 308 319 314 310 312 222 225 221 205 207 209 213 218 218 218 221 223 228 238 242 234 228 225 217 205 190 189 192 178 175 184 181 178 178 179 179 182 184 184 185 187 189 190 187 182 176 175 179 180 180 184 188 190 191 190 186 184 182 184 189 192 195 198 201 207 204 194 194 201 202 197 198 200 199
211 219 277 273 271 279 291 300 293 289 262 270 296 318 307 298 296 223 209 198 5 330 250 228 226 219 214 213 217 223 227 233 229 154 132 163 175 172 177 175 171 190 191 178 174 174 173 173 176 179 185 188 186 187 189 185 181 179 179 181 182 183 185 186 186 188 187 185 183 183 187 194 198 199 200 204 209 208 202 201 205 206 203 202 202 203
222 225 265 268 275 291 297 304 297 270 262 289 302 302 292 278 244 218 207 220 347 343 348 342 308 265 230 209 209 228 221 201 147 109 134 162 180 191 189 174 174 192 191 182 179 173 169 172 177 180 184 184 181 184 185 181 178 178 180 181 184 185 185 184 185 185 183 184 187 189 192 198 199 199 201 206 211 212 209 209 211 211 209 207 206 208
218 226 250 259 272 294 290 292 300 278 295 322 315 300 287 245 199 223 300 323 326 336 346 351 353 348 335 255 221 221 187 132 108 92 118 179 173 180 183 172 169 177 180 180 181 175 170 174 180 182 181 179 180 184 185 184 183 181 182 185 187 187 185 185 185 184 182 184 188 188 191 197 199 200 204 209 213 214 213 212 213 213 214 212 212 212
187 210 245 256 281 328 282 272 318 300 273 308 328 332 354 31 337 325 322 326 344 350 345 352 8 354 342 317 255 201 117 95 96 74 349 229 178 169 174 171 167 170 174 175 174 172 171 171 175 179 181 181 183 184 183 184 187 187 188 190 190 188 187 186 187 187 185 185 187 191 198 203 205 206 208 212 216 217 216 215 214 213 215 217 217 213
168 196 236 200 136 336 262 238 277 276 267 335 33 16 33 11 333 320 320 350 6 356 351 1 1 335 326 320 297 228 117 105 111 358 310 223 172 164 167 167 166 167 170 171 171 172 173 171 172 176 178 179 181 181 179 183 188 188 189 191 190 188 187 185 185 187 186 184 188 197 206 211 212 212 213 215 218 219 219 217 215 213 213 216 216 212
154 168 269 263 208 234 260 231 242 264 281 51 62 63 54 27 330 312 323 23 28 8 7 5 352 349 341 307 286 254 212 169 146 305 280 196 178 179 175 171 173 171 165 165 169 170 168 167 170 175 178 180 181 182 183 187 190 190 190 190 189 187 186 185 185 189 191 192 196 206 212 212 213 214 214 216 218 220 219 217 216 214 212 212 213 211
168 160 205 255 227 234 245 236 248 269 358 74 70 55 51 17 323 326 354 24 30 22 26 18 3 8 3 328 299 249 228 159 116 297 266 199 181 181 173 173 179 177 169 168 171 168 162 161 166 173 179 182 184 186 187 188 190 190 189 189 187 185 185 184 183 187 192 194 200 210 213 212 213 213 214 217 218 219 220 220 220 218 214 214 216 215
181 173 232 239 231 251 255 232 325 2 40 66 76 78 70 5 337 350 0 11 22 29 36 33 28 32 24 359 348 80 118 109 150 253 248 199 173 168 167 171 176 175 172 171 171 167 163 164 168 172 176 178 180 184 187 189 193 194 189 186 185 186 189 190 189 190 194 197 203 212 215 215 214 213 214 216 216 215 216 218 220 221 219 219 219 217
339 336 313 260 250 256 39 34 26 34 57 57 37 21 30 8 330 312 322 29 30 29 34 39 45 50 43 29 31 58 81 102 174 248 235 177 173 176 174 173 175 173 168 165 165 165 164 167 171 174 175 176 178 183 186 188 192 193 188 185 186 187 192 198 198 198 200 205 211 217 220 221 218 215 215 215 214 215 216 216 217 220 223 224 223 221
275 302 320 313 301 286 43 12 354 342 70 64 30 354 10 3 316 307 358 66 42 26 28 29 41 53 48 40 43 51 59 67 59 43 82 135 178 185 179 179 184 180 164 159 163 168 169 170 174 175 176 176 177 180 185 187 190 190 187 186 189 189 189 193 196 196 197 203 211 216 219 220 219 217 216 216 215 216 218 220 221 221 223 227 229 227
263 291 332 331 317 306 360 356 343 324 32 69 39 339 16 19 317 317 14 60 43 35 39 30 35 48 46 44 51 53 50 48 46 50 61 81 142 162 169 177 182 181 171 164 168 173 173 172 174 175 176 177 178 180 182 185 186 186 185 189 194 195 191 190 191 191 192 200 211 214 213 213 214 213 213 213 213 212 213 219 223 223 224 228 229 224
289 299 320 315 315 311 310 329 355 344 4 82 114 275 228 121 313 334 33 50 38 38 42 39 43 47 41 36 43 51 53 48 45 58 64 54 59 104 138 154 165 176 178 172 172 177 177 173 173 174 176 178 181 182 183 186 187 185 187 192 198 200 197 194 193 192 193 201 214 218 214 211 210 209 209 209 209 208 208 213 217 217 221 226 228 224